Погода в Варгашах

Россия / Курганская область     55°22′31″N   65°48′56″E
темп.,
°C
ветер,
м/с
пор.,
м/с
влажн.,
%
обл.,
%
осадки,
мм/ч
давл.,
гПа
погр.,
м
17 сентября, пт
пт1723:00+6зюз49695 0.0 1001250
02:00+5зюз4108193 0.0 1000369
05:00+3зюз4108582 0.0 1000374
08:00+4зюз61096100 0.6 999962
11:00+6з5888100 1.3 999935
14:00+8зсз7107295 0.4 10001232
17:00+7зсз71177100 0.6 10021132
20:00+5зсз61086100 0.2 1004961
18 сентября, сб
сб1823:00+5зсз5987100 0.3 1006749
02:00+5з5987100 0.1 1006567
05:00+3з498872 0.1 1007527
08:00+4з488372 0.0 1008416
11:00+7зюз566489 0.0 10071079
14:00+6зюз688081 0.1 1007805
17:00+6з597076 0.2 1007905
20:00+4зюз4117515 0.0 1007305
19 сентября, вс
вс1923:00+2з511845 0.0 1007347
02:00+1зюз5128313 0.0 1006472
05:00+2зюз71388100 0.0 1006803
08:00+2з61096100 0.4 1006853
11:00+3з61195100 0.8 1007750
14:00+3зсз71196100 0.4 1009796
17:00+3зсз7129097 0.7 1011931
20:00+3зсз71388100 0.0 1013906
20 сентября, пн
пн2023:00+4зсз71287100 0.1 10141007
02:00+3зсз6128799 0.1 1016596
05:00+2зсз6118793 0.1 1018546
08:00+2зсз51086100 0.0 1020392
11:00+5сз577099 0.0 1022821
14:00+6сз5662100 0.1 10241163
17:00+6ссз5665100 0.2 10251042
20:00+4сз4777100 0.1 1027414
21 сентября, вт
вт2123:00+3ссз479092 0.1 1028376
02:00+2ссз348726 0.0 1028286
05:00−1сз229622 0.0 102936
08:00+2зсз238182 0.0 1030184
11:00+6сз335136 0.0 10291162
14:00+9зсз33415 0.0 10271402
17:00+9зсз34418 0.0 10261329
20:00+5зсз226028 0.0 102621